Location: Jackson Park
(37.2862°N, 79.9123°W)
Time: 21:28:43
(UTC+00:00)

Transit 4A - Pass Details

Date: 11 May 2026
Orbit: 860 x 980 km, 66.8° (Epoch: 9 June)

Event Time Altitude Azimuth Distance (km) Brightness Sun altitude
Rises 13:14:51 0° 188° (S) 3,503 10.9 34.2°
Reaches altitude 10° 13:17:24 10° 183° (S) 2,584 10.3 34.7°
Maximum altitude 13:23:07 47° 111° (ESE) 1,214 10.5 35.8°
Drops below altitude 10° 13:29:02 10° 39° (NE) 2,679 10.8 37.0°
Sets 13:31:43 0° 34° (NE) 3,644 11.3 37.5°
